• în Republica Moldova
  • Lista ţărilor
  • Pe 7 zile
  • Temperatura apei
  • Hartă satelitară
  • Meteo pe hartă
  • Widget-uri
  • user-avatar
    Intrare

    Meteo pe oră la Kalgoorlie

    Astăzi, 24 Iunie, Sâmbătă

    Timp Temperatura Precipitaţii Vânt Presiune Umiditate
    00:00 +12°C° 0,1 mm 4 m/s 733 mmHg 78%
    01:00 +11°C° 0,1 mm 4 m/s 733 mmHg 84%
    02:00 +11°C° 0,1 mm 4 m/s 734 mmHg 91%
    03:00 +10°C° 0 mm 4 m/s 734 mmHg 92%
    04:00 +9°C° 0 mm 5 m/s 734 mmHg 92%
    05:00 +9°C° 0 mm 5 m/s 734 mmHg 93%
    06:00 +9°C° 0 mm 5 m/s 734 mmHg 91%
    07:00 +10°C° 0 mm 5 m/s 734 mmHg 89%
    08:00 +10°C° 0 mm 5 m/s 735 mmHg 84%
    09:00 +12°C° 0 mm 5 m/s 735 mmHg 81%
    10:00 +12°C° 0 mm 5 m/s 735 mmHg 78%
    11:00 +12°C° 0 mm 5 m/s 735 mmHg 76%
    12:00 +13°C° 0 mm 4 m/s 735 mmHg 72%
    13:00 +13°C° 0 mm 4 m/s 734 mmHg 68%
    14:00 +14°C° 0 mm 4 m/s 734 mmHg 64%
    15:00 +14°C° 0 mm 4 m/s 734 mmHg 65%
    16:00 +13°C° 0 mm 4 m/s 734 mmHg 67%
    17:00 +13°C° 0 mm 3 m/s 734 mmHg 68%
    18:00 +12°C° 0 mm 3 m/s 734 mmHg 71%
    19:00 +12°C° 0 mm 3 m/s 734 mmHg 73%
    20:00 +11°C° 0 mm 3 m/s 735 mmHg 76%
    21:00 +11°C° 0 mm 3 m/s 735 mmHg 78%
    22:00 +11°C° 0 mm 3 m/s 735 mmHg 79%
    23:00 +10°C° 0 mm 3 m/s 735 mmHg 81%

    Mâine, 25 Iunie, Duminică

    Timp Temperatura Precipitaţii Vânt Presiune Umiditate
    00:00 +10°C° 0 mm 3 m/s 735 mmHg 82%
    01:00 +9°C° 0 mm 3 m/s 735 mmHg 83%
    02:00 +8°C° 0 mm 3 m/s 735 mmHg 85%
    03:00 +8°C° 0 mm 3 m/s 735 mmHg 85%
    04:00 +8°C° 0 mm 3 m/s 735 mmHg 85%
    05:00 +7°C° 0 mm 3 m/s 735 mmHg 85%
    06:00 +8°C° 0 mm 3 m/s 735 mmHg 85%
    07:00 +7°C° 0 mm 4 m/s 736 mmHg 85%
    08:00 +7°C° 0 mm 4 m/s 736 mmHg 84%
    09:00 +10°C° 0 mm 4 m/s 736 mmHg 76%
    10:00 +10°C° 0 mm 5 m/s 736 mmHg 67%
    11:00 +13°C° 0 mm 5 m/s 736 mmHg 58%
    12:00 +13°C° 0 mm 5 m/s 736 mmHg 56%
    13:00 +13°C° 0 mm 5 m/s 735 mmHg 54%
    14:00 +14°C° 0 mm 4 m/s 735 mmHg 52%
    15:00 +13°C° 0 mm 4 m/s 735 mmHg 55%
    16:00 +12°C° 0 mm 4 m/s 735 mmHg 58%
    17:00 +11°C° 0 mm 3 m/s 735 mmHg 61%
    18:00 +11°C° 0 mm 4 m/s 735 mmHg 64%
    19:00 +10°C° 0 mm 4 m/s 736 mmHg 67%
    20:00 +10°C° 0 mm 4 m/s 736 mmHg 70%
    21:00 +10°C° 0 mm 3 m/s 736 mmHg 72%
    22:00 +9°C° 0 mm 3 m/s 736 mmHg 74%
    23:00 +9°C° 0 mm 3 m/s 737 mmHg 76%

    Poimâine, 26 Iunie, Luni

    Timp Temperatura Precipitaţii Vânt Presiune Umiditate
    00:00 +9°C° 0 mm 3 m/s 736 mmHg 78%
    01:00 +8°C° 0 mm 3 m/s 736 mmHg 81%
    02:00 +8°C° 0 mm 3 m/s 736 mmHg 83%
    03:00 +8°C° 0 mm 3 m/s 736 mmHg 86%
    04:00 +7°C° 0 mm 2 m/s 736 mmHg 89%
    05:00 +7°C° 0 mm 2 m/s 736 mmHg 92%
    06:00 +7°C° 0 mm 2 m/s 736 mmHg 90%
    07:00 +7°C° 0 mm 2 m/s 737 mmHg 89%
    08:00 +8°C° 0 mm 2 m/s 737 mmHg 88%
    09:00 +9°C° 0 mm 2 m/s 737 mmHg 77%
    10:00 +12°C° 0 mm 2 m/s 737 mmHg 67%
    11:00 +13°C° 0 mm 2 m/s 737 mmHg 57%
    12:00 +14°C° 0 mm 2 m/s 737 mmHg 54%
    13:00 +14°C° 0 mm 2 m/s 736 mmHg 51%
    14:00 +14°C° 0 mm 2 m/s 736 mmHg 48%
    15:00 +14°C° 0 mm 2 m/s 736 mmHg 51%
    16:00 +13°C° 0 mm 2 m/s 736 mmHg 54%
    17:00 +12°C° 0 mm 1 m/s 736 mmHg 57%
    18:00 +11°C° 0 mm 1 m/s 736 mmHg 59%
    19:00 +10°C° 0 mm 1 m/s 736 mmHg 62%
    20:00 +10°C° 0 mm 1 m/s 737 mmHg 65%
    21:00 +9°C° 0 mm 1 m/s 737 mmHg 66%
    22:00 +9°C° 0 mm 1 m/s 737 mmHg 68%
    23:00 +9°C° 0 mm 1 m/s 737 mmHg 69%

    27 Iunie, Marţi

    Timp Temperatura Precipitaţii Vânt Presiune Umiditate
    00:00 +9°C° 0 mm 1 m/s 737 mmHg 70%
    01:00 +7°C° 0 mm 2 m/s 737 mmHg 70%
    02:00 +7°C° 0 mm 2 m/s 737 mmHg 71%
    03:00 +7°C° 0 mm 2 m/s 737 mmHg 73%
    04:00 +7°C° 0 mm 2 m/s 737 mmHg 74%
    05:00 +7°C° 0 mm 2 m/s 737 mmHg 76%
    06:00 +7°C° 0 mm 3 m/s 737 mmHg 77%
    07:00 +7°C° 0 mm 3 m/s 738 mmHg 77%
    08:00 +8°C° 0 mm 3 m/s 738 mmHg 78%
    09:00 +10°C° 0 mm 3 m/s 738 mmHg 71%
    10:00 +11°C° 0 mm 4 m/s 738 mmHg 64%
    11:00 +13°C° 0 mm 4 m/s 739 mmHg 58%
    12:00 +14°C° 0 mm 4 m/s 738 mmHg 54%
    13:00 +15°C° 0 mm 4 m/s 738 mmHg 51%
    14:00 +15°C° 0 mm 5 m/s 737 mmHg 47%
    15:00 +14°C° 0 mm 4 m/s 738 mmHg 53%
    16:00 +13°C° 0 mm 4 m/s 738 mmHg 58%
    17:00 +12°C° 0 mm 4 m/s 738 mmHg 63%
    18:00 +11°C° 0 mm 4 m/s 739 mmHg 69%
    19:00 +10°C° 0 mm 4 m/s 739 mmHg 75%
    20:00 +10°C° 0 mm 4 m/s 740 mmHg 80%
    21:00 +8°C° 0 mm 4 m/s 740 mmHg 83%
    22:00 +8°C° 0 mm 4 m/s 740 mmHg 85%
    23:00 +7°C° 0 mm 4 m/s 741 mmHg 88%

    28 Iunie, Miercuri

    Timp Temperatura Precipitaţii Vânt Presiune Umiditate
    00:00 +7°C° 0 mm 4 m/s 741 mmHg 90%
    01:00 +8°C° 0 mm 3 m/s 741 mmHg 92%
    02:00 +7°C° 0 mm 3 m/s 741 mmHg 94%
    03:00 +7°C° 0 mm 3 m/s 741 mmHg 94%
    04:00 +7°C° 0 mm 3 m/s 741 mmHg 94%
    05:00 +5°C° 0 mm 3 m/s 741 mmHg 94%
    06:00 +7°C° 0 mm 3 m/s 741 mmHg 94%
    07:00 +7°C° 0 mm 3 m/s 742 mmHg 93%
    08:00 +7°C° 0 mm 3 m/s 742 mmHg 93%
    09:00 +8°C° 0 mm 4 m/s 742 mmHg 84%
    10:00 +9°C° 0 mm 5 m/s 742 mmHg 75%
    11:00 +11°C° 0 mm 6 m/s 742 mmHg 66%
    12:00 +13°C° 0 mm 5 m/s 742 mmHg 61%
    13:00 +13°C° 0 mm 5 m/s 741 mmHg 56%
    14:00 +14°C° 0 mm 5 m/s 741 mmHg 50%
    15:00 +13°C° 0 mm 4 m/s 741 mmHg 54%
    16:00 +12°C° 0 mm 4 m/s 741 mmHg 57%
    17:00 +11°C° 0 mm 3 m/s 741 mmHg 60%
    18:00 +10°C° 0 mm 3 m/s 741 mmHg 62%
    19:00 +9°C° 0 mm 3 m/s 742 mmHg 64%
    20:00 +9°C° 0 mm 3 m/s 742 mmHg 66%
    21:00 +8°C° 0 mm 3 m/s 742 mmHg 67%
    22:00 +7°C° 0 mm 4 m/s 742 mmHg 69%
    23:00 +6°C° 0 mm 4 m/s 742 mmHg 71%

    29 Iunie, Joi

    Timp Temperatura Precipitaţii Vânt Presiune Umiditate
    00:00 +6°C° 0 mm 4 m/s 742 mmHg 73%
    01:00 +5°C° 0 mm 4 m/s 741 mmHg 76%
    02:00 +5°C° 0 mm 4 m/s 741 mmHg 78%
    03:00 +4°C° 0 mm 4 m/s 741 mmHg 81%
    04:00 +4°C° 0 mm 4 m/s 741 mmHg 84%
    05:00 +4°C° 0 mm 4 m/s 741 mmHg 86%
    06:00 +4°C° 0 mm 4 m/s 741 mmHg 85%
    07:00 +4°C° 0 mm 4 m/s 742 mmHg 84%
    08:00 +5°C° 0 mm 5 m/s 742 mmHg 83%
    09:00 +7°C° 0 mm 5 m/s 741 mmHg 73%
    10:00 +9°C° 0 mm 6 m/s 741 mmHg 62%
    11:00 +11°C° 0 mm 7 m/s 741 mmHg 51%
    12:00 +11°C° 0 mm 6 m/s 740 mmHg 46%
    13:00 +13°C° 0 mm 6 m/s 739 mmHg 42%
    14:00 +14°C° 0 mm 6 m/s 738 mmHg 37%
    15:00 +13°C° 0 mm 5 m/s 738 mmHg 40%
    16:00 +12°C° 0 mm 4 m/s 738 mmHg 43%
    17:00 +11°C° 0 mm 4 m/s 738 mmHg 45%
    18:00 +10°C° 0 mm 4 m/s 738 mmHg 48%
    19:00 +8°C° 0 mm 4 m/s 738 mmHg 51%
    20:00 +8°C° 0 mm 4 m/s 738 mmHg 53%
    21:00 +7°C° 0 mm 4 m/s 738 mmHg 55%
    22:00 +7°C° 0 mm 4 m/s 737 mmHg 57%
    23:00 +6°C° 0 mm 4 m/s 737 mmHg 58%
    Arată mai mult